Time,TemperatureF,DewpointF,PressureIn,WindDirection,WindDirectionDegrees,WindSpeedMPH,WindSpeedGustMPH,Humidity,HourlyPrecipIn,Conditions,Clouds,dailyrainin,SoftwareType,DateUTC
2013-04-29 00:00:00,56.7,52.2,28.91,West,270,0.0,0.0,85,0.00,,---,0.00,VWS V14.01,2013-04-29 04:00:00,
2013-04-29 00:01:00,56.7,52.2,28.91,West,270,0.0,0.0,85,0.00,,---,0.00,VWS V14.01,2013-04-29 04:01:00,
2013-04-29 00:06:00,56.5,51.7,28.91,West,270,0.0,0.0,84,0.00,,---,0.00,VWS V14.01,2013-04-29 04:06:00,
2013-04-29 00:11:00,56.3,51.5,28.91,West,270,0.0,0.0,84,0.00,,---,0.00,VWS V14.01,2013-04-29 04:11:00,
2013-04-29 00:16:00,56.1,51.7,28.91,West,270,0.0,0.0,85,0.00,,---,0.00,VWS V14.01,2013-04-29 04:16:00,
2013-04-29 00:21:00,55.9,51.8,28.91,West,270,0.0,0.0,86,0.00,,---,0.00,VWS V14.01,2013-04-29 04:21:00,
2013-04-29 00:26:00,55.6,51.8,28.91,West,270,0.0,0.0,87,0.00,,---,0.00,VWS V14.01,2013-04-29 04:26:00,
2013-04-29 00:31:00,55.4,51.9,28.91,West,270,0.0,0.0,88,0.00,,---,0.00,VWS V14.01,2013-04-29 04:31:00,
2013-04-29 00:36:00,55.2,52.0,28.91,West,270,0.0,0.0,89,0.00,,---,0.00,VWS V14.01,2013-04-29 04:36:00,
2013-04-29 00:41:00,54.9,52.0,28.91,West,270,0.0,0.0,90,0.00,,---,0.00,VWS V14.01,2013-04-29 04:41:00,
2013-04-29 00:46:00,54.7,52.1,28.91,West,270,0.0,0.0,91,0.00,,---,0.00,VWS V14.01,2013-04-29 04:46:00,
2013-04-29 00:51:00,54.5,51.9,28.91,West,270,0.0,0.0,91,0.00,,---,0.00,VWS V14.01,2013-04-29 04:51:00,
2013-04-29 00:56:00,54.3,52.0,28.91,West,270,0.0,0.0,92,0.00,,---,0.00,VWS V14.01,2013-04-29 04:56:00,
2013-04-29 01:01:00,54.1,52.2,28.91,West,270,0.0,0.0,93,0.00,,---,0.00,VWS V14.01,2013-04-29 05:01:00,
2013-04-29 01:06:00,54.0,52.0,28.91,West,270,0.0,0.0,93,0.00,,---,0.00,VWS V14.01,2013-04-29 05:06:00,
2013-04-29 01:11:00,54.0,52.3,28.91,West,270,0.0,0.0,94,0.00,,---,0.00,VWS V14.01,2013-04-29 05:11:00,
2013-04-29 01:16:00,54.0,52.3,28.91,West,270,0.0,0.0,94,0.00,,---,0.00,VWS V14.01,2013-04-29 05:16:00,
2013-04-29 01:22:00,54.1,52.5,28.91,West,270,0.0,0.0,94,0.00,,---,0.00,VWS V14.01,2013-04-29 05:22:00,
2013-04-29 01:27:00,54.1,52.7,28.91,West,270,0.0,0.0,95,0.00,,---,0.00,VWS V14.01,2013-04-29 05:27:00,
2013-04-29 01:32:00,54.3,52.9,28.91,West,270,0.0,0.0,95,0.00,,---,0.00,VWS V14.01,2013-04-29 05:32:00,
2013-04-29 01:37:00,54.3,52.9,28.91,West,270,0.0,0.0,95,0.00,,---,0.00,VWS V14.01,2013-04-29 05:37:00,
2013-04-29 01:42:00,54.3,52.9,28.91,West,270,0.0,0.0,95,0.00,,---,0.00,VWS V14.01,2013-04-29 05:42:00,
2013-04-29 01:47:00,54.3,52.9,28.91,West,270,0.0,0.0,95,0.00,,---,0.00,VWS V14.01,2013-04-29 05:47:00,
2013-04-29 01:53:00,54.3,52.9,28.91,West,270,0.0,0.0,95,0.00,,---,0.00,VWS V14.01,2013-04-29 05:53:00,
2013-04-29 01:58:00,54.7,53.0,28.91,West,270,0.0,0.0,94,0.00,,---,0.00,VWS V14.01,2013-04-29 05:58:00,
2013-04-29 02:03:00,54.7,53.0,28.91,West,270,0.0,0.0,94,0.00,,---,0.00,VWS V14.01,2013-04-29 06:03:00,
2013-04-29 02:08:00,54.9,53.2,28.91,West,270,0.0,0.0,94,0.00,,---,0.00,VWS V14.01,2013-04-29 06:08:00,
2013-04-29 02:13:00,54.9,53.2,28.91,West,270,0.0,0.0,94,0.00,,---,0.00,VWS V14.01,2013-04-29 06:13:00,
2013-04-29 02:18:00,54.9,53.2,28.91,West,270,0.0,0.0,94,0.00,,---,0.00,VWS V14.01,2013-04-29 06:18:00,
2013-04-29 02:28:00,54.9,53.2,28.91,West,270,0.0,0.0,94,0.00,,---,0.00,VWS V14.01,2013-04-29 06:28:00,
2013-04-29 02:33:00,54.9,53.2,28.91,West,270,0.0,0.0,94,0.00,,---,0.00,VWS V14.01,2013-04-29 06:33:00,
2013-04-29 02:38:00,55.2,53.5,28.91,West,270,0.0,0.0,94,0.00,,---,0.00,VWS V14.01,2013-04-29 06:38:00,
2013-04-29 02:43:00,55.4,53.4,28.91,West,270,0.0,0.0,93,0.00,,---,0.00,VWS V14.01,2013-04-29 06:43:00,
2013-04-29 02:48:00,55.4,53.4,28.91,West,270,0.0,0.0,93,0.00,,---,0.00,VWS V14.01,2013-04-29 06:48:00,
2013-04-29 02:53:00,55.6,53.3,28.91,West,270,0.0,0.0,92,0.00,,---,0.00,VWS V14.01,2013-04-29 06:53:00,
2013-04-29 02:58:00,55.8,53.2,28.91,West,270,0.0,0.0,91,0.00,,---,0.00,VWS V14.01,2013-04-29 06:58:00,
2013-04-29 03:03:00,55.8,53.2,28.91,West,270,0.0,0.0,91,0.00,,---,0.00,VWS V14.01,2013-04-29 07:03:00,
2013-04-29 03:08:00,55.9,53.4,28.91,West,270,0.0,0.0,91,0.00,,---,0.00,VWS V14.01,2013-04-29 07:08:00,
2013-04-29 03:13:00,55.9,53.4,28.91,SW,225,3.6,3.6,91,0.00,,---,0.00,VWS V14.01,2013-04-29 07:13:00,
2013-04-29 03:18:00,55.9,53.4,28.91,South,180,4.0,4.0,91,0.00,,---,0.00,VWS V14.01,2013-04-29 07:18:00,
2013-04-29 03:23:00,55.9,53.4,28.91,South,180,0.0,0.0,91,0.00,,---,0.00,VWS V14.01,2013-04-29 07:23:00,
2013-04-29 03:28:00,55.9,53.4,28.91,South,180,0.0,0.0,91,0.00,,---,0.00,VWS V14.01,2013-04-29 07:28:00,
2013-04-29 03:33:00,55.9,53.4,28.91,South,180,0.0,0.0,91,0.00,,---,0.00,VWS V14.01,2013-04-29 07:33:00,
2013-04-29 03:38:00,55.9,53.4,28.91,South,180,0.0,0.0,91,0.00,,---,0.00,VWS V14.01,2013-04-29 07:38:00,
2013-04-29 03:43:00,55.9,53.4,28.91,South,180,0.0,0.0,91,0.00,,---,0.00,VWS V14.01,2013-04-29 07:43:00,
2013-04-29 03:48:00,55.9,53.4,28.91,South,180,0.0,0.0,91,0.00,,---,0.00,VWS V14.01,2013-04-29 07:48:00,
2013-04-29 03:53:00,55.9,53.4,28.91,South,180,0.0,2.7,91,0.00,,---,0.00,VWS V14.01,2013-04-29 07:53:00,
2013-04-29 03:58:00,55.9,53.4,28.91,South,180,0.0,0.0,91,0.00,,---,0.00,VWS V14.01,2013-04-29 07:58:00,
2013-04-29 04:03:00,55.9,53.7,28.91,South,180,3.1,3.1,92,0.00,,---,0.00,VWS V14.01,2013-04-29 08:03:00,
2013-04-29 04:08:00,55.8,53.5,28.91,SW,225,0.0,0.0,92,0.00,,---,0.00,VWS V14.01,2013-04-29 08:08:00,
2013-04-29 04:13:00,55.8,53.8,28.91,SSE,158,0.0,0.0,93,0.00,,---,0.00,VWS V14.01,2013-04-29 08:13:00,
2013-04-29 04:18:00,55.6,53.6,28.91,SSE,158,2.7,2.7,93,0.00,,---,0.00,VWS V14.01,2013-04-29 08:18:00,
2013-04-29 04:23:00,55.6,53.9,28.91,SSE,158,2.7,2.7,94,0.00,,---,0.00,VWS V14.01,2013-04-29 08:23:00,
2013-04-29 04:28:00,55.4,53.7,28.94,SSE,158,0.0,0.0,94,0.00,,---,0.00,VWS V14.01,2013-04-29 08:28:00,
2013-04-29 04:33:00,55.4,54.0,28.94,SSE,158,0.0,0.0,95,0.00,,---,0.00,VWS V14.01,2013-04-29 08:33:00,
2013-04-29 04:38:00,55.4,54.0,28.94,SSE,158,0.0,0.0,95,0.00,,---,0.00,VWS V14.01,2013-04-29 08:38:00,
2013-04-29 04:43:00,55.4,54.0,28.94,SSE,158,0.0,0.0,95,0.00,,---,0.00,VWS V14.01,2013-04-29 08:43:00,
2013-04-29 04:48:00,55.2,54.4,28.94,SSE,158,0.0,0.0,97,0.00,,---,0.00,VWS V14.01,2013-04-29 08:48:00,
2013-04-29 04:53:00,55.4,54.6,28.94,SSE,158,0.0,0.0,97,0.00,,---,0.00,VWS V14.01,2013-04-29 08:53:00,
2013-04-29 04:58:00,55.2,54.7,28.91,SSE,158,0.0,0.0,98,0.00,,---,0.00,VWS V14.01,2013-04-29 08:58:00,
2013-04-29 05:03:00,55.2,54.7,28.91,SSE,158,0.0,0.0,98,0.00,,---,0.00,VWS V14.01,2013-04-29 09:03:00,
2013-04-29 05:08:00,55.2,54.7,28.91,SSE,158,0.0,0.0,98,0.00,,---,0.00,VWS V14.01,2013-04-29 09:08:00,
2013-04-29 05:13:00,55.2,54.7,28.91,SSE,158,0.0,0.0,98,0.00,,---,0.00,VWS V14.01,2013-04-29 09:13:00,
2013-04-29 05:18:00,55.2,54.7,28.91,SSE,158,0.0,0.0,98,0.00,,---,0.00,VWS V14.01,2013-04-29 09:18:00,
2013-04-29 05:23:00,55.2,54.7,28.91,SSE,158,0.0,0.0,98,0.00,,---,0.00,VWS V14.01,2013-04-29 09:23:00,
2013-04-29 05:28:00,55.2,54.7,28.94,SSE,158,0.0,0.0,98,0.00,,---,0.00,VWS V14.01,2013-04-29 09:28:00,
2013-04-29 05:33:00,55.2,54.7,28.94,SSE,158,0.0,2.7,98,0.00,,---,0.00,VWS V14.01,2013-04-29 09:33:00,
2013-04-29 05:38:00,55.2,54.7,28.94,SSE,158,0.0,0.0,98,0.00,,---,0.00,VWS V14.01,2013-04-29 09:38:00,
2013-04-29 05:43:00,55.2,54.7,28.94,SSE,158,0.0,0.0,98,0.00,,---,0.00,VWS V14.01,2013-04-29 09:43:00,
2013-04-29 05:48:00,55.2,54.7,28.94,SSE,158,0.0,0.0,98,0.00,,---,0.00,VWS V14.01,2013-04-29 09:48:00,
2013-04-29 05:53:00,55.2,54.7,28.94,SSE,158,0.0,0.0,98,0.00,,---,0.00,VWS V14.01,2013-04-29 09:53:00,
2013-04-29 05:58:00,55.2,54.7,28.94,SSE,158,0.0,0.0,98,0.00,,---,0.00,VWS V14.01,2013-04-29 09:58:00,
2013-04-29 06:03:00,55.2,54.7,28.94,SSE,158,0.0,0.0,98,0.00,,---,0.00,VWS V14.01,2013-04-29 10:03:00,
2013-04-29 06:08:00,55.2,54.7,28.94,SSE,158,0.0,0.0,98,0.00,,---,0.00,VWS V14.01,2013-04-29 10:08:00,
2013-04-29 06:13:00,55.2,54.7,28.94,SSE,158,0.0,0.0,98,0.00,,---,0.00,VWS V14.01,2013-04-29 10:13:00,
2013-04-29 06:18:00,55.2,54.7,28.94,SSE,158,0.0,0.0,98,0.00,,---,0.00,VWS V14.01,2013-04-29 10:18:00,
2013-04-29 06:23:00,55.2,54.7,28.94,SSE,158,0.0,0.0,98,0.00,,---,0.00,VWS V14.01,2013-04-29 10:23:00,
2013-04-29 06:27:00,55.4,54.8,28.94,SSE,158,0.0,0.0,98,0.00,,---,0.00,VWS V14.01,2013-04-29 10:27:00,
2013-04-29 06:32:00,55.4,54.8,28.94,SSE,158,0.0,0.0,98,0.00,,---,0.00,VWS V14.01,2013-04-29 10:32:00,
2013-04-29 06:37:00,55.4,54.8,28.94,SSE,158,2.7,2.7,98,0.00,,---,0.00,VWS V14.01,2013-04-29 10:37:00,
2013-04-29 06:42:00,55.4,54.8,28.94,SSE,158,0.0,0.0,98,0.00,,---,0.00,VWS V14.01,2013-04-29 10:42:00,
2013-04-29 06:47:00,55.4,54.8,28.94,SSE,158,0.0,4.0,98,0.00,,---,0.00,VWS V14.01,2013-04-29 10:47:00,
2013-04-29 06:52:00,55.4,54.8,28.94,WNW,292,0.0,0.0,98,0.00,,---,0.00,VWS V14.01,2013-04-29 10:52:00,
2013-04-29 06:57:00,55.4,54.8,28.94,WNW,292,0.0,0.0,98,0.00,,---,0.00,VWS V14.01,2013-04-29 10:57:00,
2013-04-29 07:02:00,55.4,54.8,28.94,WNW,292,0.0,0.0,98,0.00,,---,0.00,VWS V14.01,2013-04-29 11:02:00,
2013-04-29 07:07:00,55.4,54.8,28.94,WNW,292,0.0,0.0,98,0.00,,---,0.00,VWS V14.01,2013-04-29 11:07:00,
2013-04-29 07:12:00,55.4,54.8,28.94,WNW,292,0.0,0.0,98,0.00,,---,0.00,VWS V14.01,2013-04-29 11:12:00,
2013-04-29 07:17:00,55.4,54.8,28.94,WNW,292,0.0,0.0,98,0.00,,---,0.00,VWS V14.01,2013-04-29 11:17:00,
2013-04-29 07:22:00,55.4,54.8,28.94,WNW,292,0.0,0.0,98,0.00,,---,0.00,VWS V14.01,2013-04-29 11:22:00,
2013-04-29 07:27:00,55.4,54.8,28.97,WNW,292,0.0,0.0,98,0.00,,---,0.00,VWS V14.01,2013-04-29 11:27:00,
2013-04-29 07:32:00,55.6,55.0,28.97,WNW,292,0.0,3.1,98,0.00,,---,0.00,VWS V14.01,2013-04-29 11:32:00,
2013-04-29 07:37:00,55.6,55.0,28.97,WSW,248,0.0,0.0,98,0.00,,---,0.00,VWS V14.01,2013-04-29 11:37:00,
2013-04-29 07:42:00,55.6,55.0,28.97,WSW,248,0.0,0.0,98,0.00,,---,0.00,VWS V14.01,2013-04-29 11:42:00,
2013-04-29 07:47:00,55.6,55.0,28.97,WSW,248,2.2,2.7,98,0.00,,---,0.00,VWS V14.01,2013-04-29 11:47:00,
2013-04-29 07:52:00,55.6,55.0,28.97,WSW,248,0.0,0.0,98,0.00,,---,0.00,VWS V14.01,2013-04-29 11:52:00,
2013-04-29 07:57:00,55.6,55.0,28.97,WSW,248,0.0,0.0,98,0.00,,---,0.00,VWS V14.01,2013-04-29 11:57:00,
2013-04-29 08:02:00,55.8,55.2,28.97,WSW,248,0.0,0.0,98,0.00,,---,0.00,VWS V14.01,2013-04-29 12:02:00,
2013-04-29 08:07:00,55.8,55.2,28.97,WSW,248,0.0,0.0,98,0.00,,---,0.00,VWS V14.01,2013-04-29 12:07:00,
2013-04-29 08:12:00,55.8,55.2,28.97,WSW,248,0.0,0.0,98,0.00,,---,0.00,VWS V14.01,2013-04-29 12:12:00,
2013-04-29 08:17:00,55.8,55.2,28.97,WSW,248,0.0,0.0,98,0.00,,---,0.00,VWS V14.01,2013-04-29 12:17:00,
2013-04-29 08:22:00,55.8,55.2,28.97,WSW,248,0.0,0.0,98,0.00,,---,0.00,VWS V14.01,2013-04-29 12:22:00,
2013-04-29 08:27:00,55.8,55.2,28.97,WSW,248,0.0,2.2,98,0.00,,---,0.00,VWS V14.01,2013-04-29 12:27:00,
2013-04-29 08:32:00,55.8,55.2,28.97,WSW,248,0.0,2.2,98,0.00,,---,0.00,VWS V14.01,2013-04-29 12:32:00,
2013-04-29 08:37:00,55.8,55.2,28.97,WSW,248,0.0,0.0,98,0.00,,---,0.00,VWS V14.01,2013-04-29 12:37:00,
2013-04-29 08:42:00,55.8,55.2,28.97,WSW,248,3.6,3.6,98,0.00,,---,0.00,VWS V14.01,2013-04-29 12:42:00,
2013-04-29 08:47:00,55.9,55.4,28.97,West,270,0.0,0.0,98,0.00,,---,0.00,VWS V14.01,2013-04-29 12:47:00,
2013-04-29 08:52:00,55.9,55.4,28.97,West,270,2.7,2.7,98,0.00,,---,0.00,VWS V14.01,2013-04-29 12:52:00,
2013-04-29 08:57:00,55.9,55.4,28.97,West,270,0.0,0.0,98,0.00,,---,0.00,VWS V14.01,2013-04-29 12:57:00,
2013-04-29 09:02:00,55.9,55.4,28.97,West,270,0.0,0.0,98,0.00,,---,0.00,VWS V14.01,2013-04-29 13:02:00,
2013-04-29 09:07:00,56.1,55.6,28.97,West,270,0.0,0.0,98,0.00,,---,0.00,VWS V14.01,2013-04-29 13:07:00,
2013-04-29 09:12:00,56.3,55.8,28.97,West,270,0.0,0.0,98,0.00,,---,0.00,VWS V14.01,2013-04-29 13:12:00,
2013-04-29 09:17:00,56.3,55.8,28.97,West,270,0.0,0.0,98,0.00,,---,0.00,VWS V14.01,2013-04-29 13:17:00,
2013-04-29 09:22:00,56.5,55.9,28.97,West,270,0.0,0.0,98,0.00,,---,0.00,VWS V14.01,2013-04-29 13:22:00,
2013-04-29 09:27:00,56.7,56.1,28.97,West,270,3.1,4.0,98,0.00,,---,0.00,VWS V14.01,2013-04-29 13:27:00,
2013-04-29 09:32:00,56.7,56.1,28.97,West,270,0.0,0.0,98,0.00,,---,0.00,VWS V14.01,2013-04-29 13:32:00,
2013-04-29 09:37:00,56.8,56.3,28.97,West,270,3.6,3.6,98,0.00,,---,0.00,VWS V14.01,2013-04-29 13:37:00,
2013-04-29 09:42:00,57.0,56.5,28.97,SW,225,0.0,2.2,98,0.00,,---,0.00,VWS V14.01,2013-04-29 13:42:00,
2013-04-29 09:47:00,56.8,56.0,28.97,WSW,248,3.1,4.9,97,0.00,,---,0.00,VWS V14.01,2013-04-29 13:47:00,
2013-04-29 09:52:00,57.0,55.6,28.97,WSW,248,2.2,4.0,95,0.00,,---,0.00,VWS V14.01,2013-04-29 13:52:00,
2013-04-29 09:57:00,57.2,55.5,28.97,WSW,248,2.7,2.7,94,0.00,,---,0.00,VWS V14.01,2013-04-29 13:57:00,
2013-04-29 10:02:00,57.2,55.5,28.97,West,270,2.2,4.0,94,0.00,,---,0.00,VWS V14.01,2013-04-29 14:02:00,
2013-04-29 10:07:00,57.2,55.2,28.97,West,270,3.1,3.1,93,0.00,,---,0.00,VWS V14.01,2013-04-29 14:07:00,
2013-04-29 10:12:00,57.4,55.1,28.97,NW,315,0.0,3.6,92,0.00,,---,0.00,VWS V14.01,2013-04-29 14:12:00,
2013-04-29 10:17:00,57.4,55.1,28.97,NW,315,0.0,0.0,92,0.00,,---,0.00,VWS V14.01,2013-04-29 14:17:00,
2013-04-29 10:22:00,57.6,55.0,28.97,NW,315,0.0,0.0,91,0.00,,---,0.00,VWS V14.01,2013-04-29 14:22:00,
2013-04-29 10:27:00,57.6,55.0,28.97,NNW,338,0.0,0.0,91,0.00,,---,0.00,VWS V14.01,2013-04-29 14:27:00,
2013-04-29 10:32:00,57.7,55.1,28.97,NNW,338,0.0,0.0,91,0.00,,---,0.00,VWS V14.01,2013-04-29 14:32:00,
2013-04-29 10:37:00,57.7,54.8,28.97,NNW,338,0.0,0.0,90,0.00,,---,0.00,VWS V14.01,2013-04-29 14:37:00,
2013-04-29 10:42:00,57.7,54.8,29.00,NNW,338,0.0,0.0,90,0.00,,---,0.00,VWS V14.01,2013-04-29 14:42:00,
2013-04-29 10:47:00,57.9,55.0,29.00,NNW,338,0.0,0.0,90,0.00,,---,0.00,VWS V14.01,2013-04-29 14:47:00,
2013-04-29 10:52:00,58.1,54.9,29.00,NNW,338,0.0,0.0,89,0.00,,---,0.00,VWS V14.01,2013-04-29 14:52:00,
2013-04-29 10:57:00,58.1,54.6,29.00,NNW,338,0.0,2.7,88,0.00,,---,0.00,VWS V14.01,2013-04-29 14:57:00,
2013-04-29 11:02:00,58.1,54.3,29.00,NNW,338,0.0,0.0,87,0.00,,---,0.00,VWS V14.01,2013-04-29 15:02:00,
2013-04-29 11:07:00,58.3,54.4,29.00,NNW,338,0.0,0.0,87,0.00,,---,0.00,VWS V14.01,2013-04-29 15:07:00,
2013-04-29 11:12:00,58.3,54.1,29.00,NNW,338,0.0,0.0,86,0.00,,---,0.00,VWS V14.01,2013-04-29 15:12:00,
2013-04-29 11:17:00,58.5,54.3,29.00,NNW,338,0.0,0.0,86,0.00,,---,0.00,VWS V14.01,2013-04-29 15:17:00,
2013-04-29 11:22:00,58.5,54.6,29.00,NNW,338,0.0,0.0,87,0.00,,---,0.00,VWS V14.01,2013-04-29 15:22:00,
2013-04-29 11:27:00,58.5,54.6,29.00,NNW,338,0.0,0.0,87,0.00,,---,0.00,VWS V14.01,2013-04-29 15:27:00,
2013-04-29 11:32:00,58.5,54.0,29.00,SW,225,0.0,0.0,85,0.00,,---,0.00,VWS V14.01,2013-04-29 15:32:00,
2013-04-29 11:37:00,58.5,54.0,29.00,SW,225,2.2,2.7,85,0.00,,---,0.00,VWS V14.01,2013-04-29 15:37:00,
2013-04-29 11:42:00,58.5,53.7,29.00,SW,225,0.0,0.0,84,0.00,,---,0.00,VWS V14.01,2013-04-29 15:42:00,
2013-04-29 11:47:00,58.6,54.2,29.00,SW,225,0.0,0.0,85,0.00,,---,0.00,VWS V14.01,2013-04-29 15:47:00,
2013-04-29 11:52:00,58.8,54.3,29.00,SW,225,0.0,0.0,85,0.00,,---,0.00,VWS V14.01,2013-04-29 15:52:00,
2013-04-29 11:57:00,59.0,54.2,29.00,SW,225,0.0,0.0,84,0.00,,---,0.00,VWS V14.01,2013-04-29 15:57:00,
2013-04-29 12:02:00,59.0,53.8,29.00,SW,225,0.0,0.0,83,0.00,,---,0.00,VWS V14.01,2013-04-29 16:02:00,
2013-04-29 12:07:00,59.2,54.0,29.00,SW,225,0.0,0.0,83,0.00,,---,0.00,VWS V14.01,2013-04-29 16:07:00,
2013-04-29 12:12:00,59.2,53.4,29.00,SW,225,0.0,0.0,81,0.00,,---,0.00,VWS V14.01,2013-04-29 16:12:00,
2013-04-29 12:17:00,59.2,53.4,29.00,SW,225,3.1,4.0,81,0.00,,---,0.00,VWS V14.01,2013-04-29 16:17:00,
2013-04-29 12:22:00,59.4,53.9,29.00,SW,225,0.0,2.7,82,0.00,,---,0.00,VWS V14.01,2013-04-29 16:22:00,
2013-04-29 12:27:00,59.4,53.5,29.00,SW,225,0.0,0.0,81,0.00,,---,0.00,VWS V14.01,2013-04-29 16:27:00,
2013-04-29 12:32:00,59.5,53.4,29.00,SW,225,0.0,0.0,80,0.00,,---,0.00,VWS V14.01,2013-04-29 16:32:00,
2013-04-29 12:37:00,59.7,53.5,29.00,WSW,248,3.6,3.6,80,0.00,,---,0.00,VWS V14.01,2013-04-29 16:37:00,
2013-04-29 12:42:00,59.5,53.0,29.00,WSW,248,2.2,3.1,79,0.00,,---,0.00,VWS V14.01,2013-04-29 16:42:00,
2013-04-29 12:47:00,59.7,53.2,29.00,WSW,248,0.0,0.0,79,0.00,,---,0.00,VWS V14.01,2013-04-29 16:47:00,
2013-04-29 12:52:00,59.7,53.2,29.00,WSW,248,2.7,2.7,79,0.00,,---,0.00,VWS V14.01,2013-04-29 16:52:00,
2013-04-29 12:57:00,59.7,52.9,29.00,WSW,248,0.0,0.0,78,0.00,,---,0.00,VWS V14.01,2013-04-29 16:57:00,
2013-04-29 13:02:00,59.5,52.7,29.00,WSW,248,0.0,0.0,78,0.00,,---,0.00,VWS V14.01,2013-04-29 17:02:00,
2013-04-29 13:07:00,59.4,52.5,29.00,WSW,248,3.1,3.1,78,0.00,,---,0.00,VWS V14.01,2013-04-29 17:07:00,
2013-04-29 13:12:00,59.2,52.3,29.00,WSW,248,0.0,3.1,78,0.00,,---,0.00,VWS V14.01,2013-04-29 17:12:00,
2013-04-29 13:17:00,59.2,52.7,29.00,WSW,248,3.6,3.6,79,0.00,,---,0.00,VWS V14.01,2013-04-29 17:17:00,
2013-04-29 13:22:00,59.2,52.7,29.00,NW,315,0.0,0.0,79,0.00,,---,0.00,VWS V14.01,2013-04-29 17:22:00,
2013-04-29 13:27:00,59.4,52.9,29.00,NW,315,0.0,0.0,79,0.00,,---,0.00,VWS V14.01,2013-04-29 17:27:00,
2013-04-29 13:32:00,59.7,52.9,29.00,NW,315,2.2,2.7,78,0.00,,---,0.00,VWS V14.01,2013-04-29 17:32:00,
2013-04-29 13:37:00,60.1,53.2,29.00,NW,315,0.0,0.0,78,0.00,,---,0.00,VWS V14.01,2013-04-29 17:37:00,
2013-04-29 13:42:00,60.3,52.7,29.00,WNW,292,0.0,0.0,76,0.00,,---,0.00,VWS V14.01,2013-04-29 17:42:00,
2013-04-29 13:47:00,61.0,53.4,29.00,WNW,292,0.0,0.0,76,0.00,,---,0.00,VWS V14.01,2013-04-29 17:47:00,
2013-04-29 13:52:00,61.2,52.8,29.00,WNW,292,0.0,0.0,74,0.00,,---,0.00,VWS V14.01,2013-04-29 17:52:00,
2013-04-29 13:57:00,61.2,52.5,29.00,SSW,202,0.0,0.0,73,0.00,,---,0.00,VWS V14.01,2013-04-29 17:57:00,
2013-04-29 14:02:00,61.2,52.5,29.00,SSW,202,0.0,0.0,73,0.00,,---,0.00,VWS V14.01,2013-04-29 18:02:00,
2013-04-29 14:07:00,61.3,52.6,29.00,SSW,202,0.0,0.0,73,0.00,,---,0.00,VWS V14.01,2013-04-29 18:07:00,
2013-04-29 14:12:00,61.3,52.2,29.00,SSW,202,0.0,0.0,72,0.00,,---,0.00,VWS V14.01,2013-04-29 18:12:00,
2013-04-29 14:17:00,61.2,51.7,29.00,WSW,248,4.0,4.0,71,0.00,,---,0.00,VWS V14.01,2013-04-29 18:17:00,
2013-04-29 14:22:00,61.0,51.1,29.00,WSW,248,2.2,2.2,70,0.00,,---,0.00,VWS V14.01,2013-04-29 18:22:00,
2013-04-29 14:27:00,61.0,51.5,29.00,WSW,248,0.0,0.0,71,0.00,,---,0.00,VWS V14.01,2013-04-29 18:27:00,
2013-04-29 14:32:00,61.2,51.3,29.00,WSW,248,0.0,0.0,70,0.00,,---,0.00,VWS V14.01,2013-04-29 18:32:00,
2013-04-29 14:37:00,61.3,51.5,29.00,WSW,248,0.0,0.0,70,0.00,,---,0.00,VWS V14.01,2013-04-29 18:37:00,
2013-04-29 14:42:00,61.7,51.4,29.00,WSW,248,0.0,2.7,69,0.00,,---,0.00,VWS V14.01,2013-04-29 18:42:00,
2013-04-29 14:47:00,61.9,52.0,29.00,WSW,248,0.0,0.0,70,0.00,,---,0.00,VWS V14.01,2013-04-29 18:47:00,
2013-04-29 14:52:00,61.9,51.6,29.00,WSW,248,0.0,0.0,69,0.00,,---,0.00,VWS V14.01,2013-04-29 18:52:00,
2013-04-29 14:57:00,61.7,51.4,29.00,WSW,248,0.0,0.0,69,0.00,,---,0.00,VWS V14.01,2013-04-29 18:57:00,
2013-04-29 15:02:00,61.7,51.8,29.00,WSW,248,0.0,0.0,70,0.00,,---,0.00,VWS V14.01,2013-04-29 19:02:00,
2013-04-29 15:07:00,61.3,51.1,29.00,WSW,248,0.0,0.0,69,0.00,,---,0.00,VWS V14.01,2013-04-29 19:07:00,
2013-04-29 15:12:00,61.3,51.5,29.00,WSW,248,0.0,0.0,70,0.00,,---,0.00,VWS V14.01,2013-04-29 19:12:00,
2013-04-29 15:17:00,61.3,51.5,29.00,WSW,248,0.0,0.0,70,0.00,,---,0.00,VWS V14.01,2013-04-29 19:17:00,
2013-04-29 15:22:00,61.5,51.7,29.00,WSW,248,0.0,0.0,70,0.00,,---,0.00,VWS V14.01,2013-04-29 19:22:00,
2013-04-29 15:27:00,61.3,52.2,29.00,WSW,248,0.0,0.0,72,0.00,,---,0.00,VWS V14.01,2013-04-29 19:27:00,
2013-04-29 15:32:00,61.2,52.1,29.00,WSW,248,0.0,0.0,72,0.00,,---,0.00,VWS V14.01,2013-04-29 19:32:00,
2013-04-29 15:37:00,61.2,52.1,29.00,WSW,248,0.0,0.0,72,0.00,,---,0.00,VWS V14.01,2013-04-29 19:37:00,
2013-04-29 15:42:00,61.0,51.9,29.00,WSW,248,0.0,0.0,72,0.00,,---,0.00,VWS V14.01,2013-04-29 19:42:00,
2013-04-29 15:47:00,61.2,52.1,29.00,WSW,248,0.0,0.0,72,0.00,,---,0.00,VWS V14.01,2013-04-29 19:47:00,
2013-04-29 15:52:00,61.0,51.9,29.00,WSW,248,0.0,0.0,72,0.00,,---,0.00,VWS V14.01,2013-04-29 19:52:00,
2013-04-29 15:57:00,61.0,52.3,29.00,WSW,248,0.0,0.0,73,0.00,,---,0.00,VWS V14.01,2013-04-29 19:57:00,
2013-04-29 16:02:00,61.0,52.3,29.00,WSW,248,0.0,0.0,73,0.00,,---,0.00,VWS V14.01,2013-04-29 20:02:00,